Powrót do katalogu

Norby-3

AktywnyNaukaSSO
NORAD 61761·PAYLOAD·🇷🇺 Russia

Wystrzelony Nov 4, 2024 z Vostochny Cosmodrome

Loading…

Następne Przeloty (najbliższe 24 godziny)

TLE

ŚwieżeSource: Space-Track

Epoka: Sep 14, 2026, 15:38 UTC

1 61761U 24199AC  26257.65197448  .00050346  00000-0  52118-3 0  9990
2 61761  97.2722 136.5463 0001938 319.9328  40.1789 15.64571052151569

Śledź Norby-3 w czasie rzeczywistym z AllMySat

Download on the App Store